Temp
72 71 72 73 72 73 73 73 75 75 74 75 75 75 75 74 72 73 73 73 71 71
72 73 73 74 74 74 74 75 75 74 74 74 74 74 74 73 74 74 73 72 71 70
74 74 74 73 73 74 74 76 75 73 72 72 73 73 75 75 74 73 73 73 73 71
74 74 74 73 73 74 74 74 73 73 71 71 74 75 74 74 75 74 73 73 73 73
75 74 73 73 73 74 73 73 74 73 72 72 73 75 74 74 75 73 72 73 73 72
74 74 74 73 73 73 73 74 74 73 72 73 73 73 74 74 73 73 73 73 72 73
75 75 75 74 73 73 73 73 73 73 73 73 74 74 74 74 73 73 73 74 74 73
75 76 75 73 74 74 74 75 74 73 73 74 75 77 73 73 73 72 72 72 73 74
72 73 74 74 73 73 73 73 73 73 73 73 77 73 72 74 72 72 72 73 73 74
74 73 73 73 73 73 73 73 73 73 73 73 74 70 70 71 71 71 71 71 72 74
75 74 73 73 73 73 73 73 73 73 73 72 73 66 66 67 69 69 70 71 72 73
74 73 73 73 73 73 73 69 69 69 69 69 70 64 64 65 66 67 69 71 71 71
74 74 71 69 68 67 67 67 67 67 67 66 67 64 63 65 68 68 69 69 70 67
70 68 67 66 66 66 65 64 63 63 63 64 64 64 59 58 64 67 69 69 70 70
MSLP
1014.11 1014.49 1014.79 1015.06 1015.20 1015.22 1015.16 1015.18 1015.18 1015.28 1015.20 1015.26 1015.23 1015.44 1015.66 1016.00 1016.22 1016.26 1016.42 1016.54 1016.80 1016.79
1013.80 1014.07 1014.36 1014.56 1014.71 1014.87 1014.96 1014.96 1014.98 1015.10 1015.20 1015.34 1015.26 1015.43 1015.79 1015.83 1015.94 1016.05 1016.05 1016.20 1016.41 1016.73
1013.31 1013.59 1013.84 1014.16 1014.38 1014.59 1014.68 1014.75 1014.85 1015.00 1015.16 1015.28 1015.27 1015.36 1015.54 1015.54 1015.56 1015.89 1015.85 1015.91 1016.19 1016.33
1012.93 1013.22 1013.46 1013.86 1014.09 1014.23 1014.43 1014.51 1014.66 1014.86 1015.08 1015.15 1015.20 1015.25 1015.34 1015.42 1015.42 1015.58 1015.60 1015.60 1015.86 1015.87
1012.61 1012.91 1013.21 1013.42 1013.63 1013.92 1014.14 1014.31 1014.32 1014.54 1014.79 1014.92 1014.98 1014.95 1014.94 1015.06 1015.13 1015.30 1015.43 1015.33 1015.36 1015.48
1012.26 1012.57 1012.81 1012.96 1013.07 1013.40 1013.70 1013.79 1013.89 1014.17 1014.36 1014.46 1014.45 1014.48 1014.50 1014.54 1014.61 1014.74 1014.91 1014.92 1014.95 1014.90
1011.72 1011.94 1012.31 1012.58 1012.68 1012.90 1013.13 1013.26 1013.33 1013.42 1013.66 1013.79 1013.89 1014.00 1014.09 1014.16 1014.12 1014.18 1014.26 1014.31 1014.35 1014.37
1011.11 1011.37 1011.71 1012.03 1012.36 1012.50 1012.60 1012.74 1012.79 1012.99 1013.09 1013.28 1013.47 1013.52 1013.62 1013.64 1013.66 1013.70 1013.76 1013.76 1013.76 1013.65
1010.73 1010.99 1011.17 1011.41 1011.65 1011.96 1012.14 1012.23 1012.34 1012.48 1012.70 1012.83 1012.87 1012.93 1012.95 1013.06 1013.19 1013.22 1013.22 1013.17 1013.06 1013.03
1010.13 1010.36 1010.71 1010.99 1011.18 1011.31 1011.58 1011.66 1011.93 1012.08 1012.16 1012.20 1012.17 1012.31 1012.26 1012.43 1012.58 1012.65 1012.56 1012.53 1012.48 1012.44
1009.73 1010.06 1010.29 1010.56 1010.90 1011.04 1011.10 1011.35 1011.59 1011.61 1011.63 1011.79 1011.78 1011.89 1011.92 1011.98 1012.23 1012.15 1011.88 1011.82 1011.73 1011.72
1009.38 1009.72 1010.00 1010.10 1010.45 1010.54 1010.88 1011.31 1011.53 1011.67 1011.70 1011.83 1011.78 1011.74 1011.71 1011.63 1011.87 1011.84 1011.53 1011.23 1011.10 1011.12
1009.00 1009.39 1009.83 1010.18 1010.44 1010.93 1011.22 1011.51 1011.58 1011.82 1011.78 1011.76 1011.77 1011.72 1011.69 1011.44 1011.26 1011.21 1011.09 1010.72 1010.50 1010.41
1009.36 1009.75 1009.93 1010.40 1010.74 1011.17 1011.59 1011.82 1012.00 1012.10 1012.02 1011.86 1011.87 1011.72 1011.70 1011.54 1011.29 1010.88 1010.59 1010.32 1010.08 1009.90
Wind_Speed
7 4 5 5 4 4 4 4 4 5 5 5 4 3 3 2 3 3 3 5 5 3
7 7 6 7 5 4 4 4 5 6 6 5 4 2 4 4 4 4 3 4 3 3
8 7 6 5 6 5 5 4 4 5 4 6 5 5 5 4 3 4 3 3 3 2
8 7 6 6 6 5 3 4 6 5 5 6 5 6 5 5 5 5 5 4 4 5
8 6 7 7 7 6 7 5 6 6 6 6 6 6 6 6 5 6 6 6 5 6
9 9 9 8 7 6 7 7 6 6 7 7 7 6 6 6 6 6 7 7 6 7
10 11 9 8 7 7 7 7 7 7 7 7 7 6 6 6 6 6 7 7 7 7
10 9 9 8 8 8 7 7 7 6 7 7 6 6 7 7 7 7 7 7 7 7
8 8 9 8 8 7 7 7 7 7 7 7 6 9 13 10 7 7 7 8 7 7
9 9 8 8 7 7 7 6 6 7 7 8 8 11 13 12 6 7 7 7 7 7
9 9 7 7 7 7 5 7 5 6 7 6 6 8 10 9 6 7 8 8 7 8
7 7 7 7 8 5 4 2 2 1 2 3 5 7 8 5 5 6 9 8 8 8
7 7 5 6 5 3 3 3 3 3 3 5 6 8 10 9 3 6 6 7 8 12
5 7 8 6 4 5 5 5 4 3 4 5 4 6 9 10 3 5 6 6 6 5
Wind_Direction
185 178 195 197 195 220 213 222 233 213 211 209 197 194 230 214 213 199 221 202 187 198
186 185 197 206 197 212 225 238 252 196 202 217 206 229 238 226 217 201 228 239 198 182
190 191 196 193 212 221 241 234 212 171 191 227 226 237 222 212 209 199 249 238 242 236
194 192 189 199 216 216 211 202 204 206 198 232 236 234 213 213 218 220 253 263 238 247
191 188 200 212 217 217 221 199 198 205 201 218 229 230 227 230 225 226 241 255 251 247
195 199 212 216 212 215 222 224 215 209 217 224 234 235 231 224 229 221 225 236 244 250
199 201 207 210 209 211 215 222 228 226 231 230 234 233 237 231 246 246 231 228 227 238
203 199 201 196 208 218 219 223 222 228 235 233 230 235 232 238 237 234 242 239 235 233
187 194 201 204 201 203 219 225 223 223 221 226 236 233 228 222 229 239 237 245 239 229
195 198 201 202 204 210 218 218 226 229 226 236 237 234 238 237 231 237 241 233 237 243
199 200 195 186 199 211 218 218 214 235 233 251 257 249 248 250 239 247 251 247 242 233
180 174 174 185 193 196 155 92 112 83 17 318 304 320 312 321 227 238 249 248 242 235
182 172 150 109 107 94 108 102 77 24 355 319 305 310 299 297 253 254 251 255 248 236
113 119 122 115 102 104 97 86 61 24 341 339 343 330 356 3 318 274 263 255 255 247